This demonstration page uses our WeatherBlox Daily Observations layout. Learn more.

Left ArrowRight Arrow

Hourly Observations for April 2, 2016

Temp ( °F °C ) Dew Point ( °F °C ) Humidity (%) Winds ( mph kmh ) Pressure ( in mb ) Visibility ( mi km ) Precip ( " mm )
12:53 am 00:53 Clear 56 13.3 51 10.6 84 84 Calm 30.14 1021 10 16 0.00 0.00
1:53 am 01:53 Clear 55 12.8 51 10.6 87 87 WNW 3 6 30.14 1021 10 16 0.00 0.00
2:53 am 02:53 Clear 53 11.7 49 9.4 86 86 Calm 30.14 1021 10 16 0.00 0.00
3:53 am 03:53 Clear 53 11.7 49 9.4 86 86 Calm 30.14 1021 10 16 0.00 0.00
4:53 am 04:53 Clear 52 11.1 48 8.9 86 86 Calm 30.14 1021 10 16 0.00 0.00
5:53 am 05:53 Clear 51 10.6 47 8.3 86 86 Calm 30.15 1021 10 16 0.00 0.00
6:53 am 06:53 Sunny 50 10 46 7.8 86 86 Calm 30.16 1021 7 11 0.00 0.00
7:53 am 07:53 Sunny 53 11.7 48 8.9 83 83 Calm 30.17 1022 10 16 0.00 0.00
8:53 am 08:53 Sunny 58 14.4 53 11.7 84 84 Calm 30.18 1022 10 16 0.00 0.00
9:53 am 09:53 Sunny 62 16.7 53 11.7 73 73 SE 3 6 30.18 1022 10 16 0.00 0.00
10:53 am 10:53 Sunny 66 18.9 54 12.2 65 65 VRB 3 6 30.17 1022 10 16 0.00 0.00
11:53 am 11:53 Sunny 70 21.1 54 12.2 57 57 VRB 3 6 30.16 1021 10 16 0.00 0.00
12:53 pm 12:53 Sunny 72 22.2 54 12.2 53 53 VRB 5 7 30.13 1020 10 16 0.00 0.00
1:53 pm 13:53 Sunny 73 22.8 53 11.7 50 50 Calm 30.11 1020 10 16 0.00 0.00
2:53 pm 14:53 Sunny 75 23.9 52 11.1 45 45 SW 5 7 30.09 1019 10 16 0.00 0.00
3:53 pm 15:53 Sunny 77 25 52 11.1 42 42 SSW 9 15 30.06 1018 10 16 0.00 0.00
4:53 pm 16:53 Sunny 77 25 51 10.6 40 40 SSE 8 13 30.05 1018 10 16 0.00 0.00
5:53 pm 17:53 Sunny 76 24.4 53 11.7 45 45 SSE 8 13 30.03 1017 10 16 0.00 0.00
6:53 pm 18:53 Sunny 72 22.2 56 13.3 57 57 SE 7 11 30.04 1017 10 16 0.00 0.00
7:53 pm 19:53 Partly Cloudy 68 20 56 13.3 65 65 SE 5 7 30.04 1017 10 16 0.00 0.00
8:53 pm 20:53 Mostly Clear 69 20.6 56 13.3 63 63 S 3 6 30.05 1018 10 16 0.00 0.00
9:53 pm 21:53 Clear 66 18.9 55 12.8 68 68 Calm 30.06 1018 10 16 0.00 0.00
10:53 pm 22:53 Clear 62 16.7 55 12.8 78 78 Calm 30.07 1018 10 16 0.00 0.00
11:53 pm 23:53 Clear 61 16.1 54 12.2 78 78 Calm 30.08 1019 9 14 0.00 0.00

Powered by AerisWeather